sat.trackr.live / text

‹ back to catalog

STARLINK-32421

NORAD 61628 · 2024-191H

PAYLOAD ACTIVE UNKNOWN

§ Identity

Operator
Country
US
Launch date
2024-10-23
Launch site
AFETR
Launch vehicle
Mass (kg)
RCS (m²)

Purposes: comms

External: N2YO · Heavens-Above · Gunter

§ Orbital elements

Epoch: 2026-05-25T04:22:28.587648Z

Period
94.27 min
Inclination
43.0001°
Eccentricity
0.0000690
Mean motion
15.27580537 rev/d
Perigee alt
482.6 km
Apogee alt
483.5 km
Semi-major
6,861.2 km
B*
2.6286e-5
RAAN
82.6259°
Arg perigee
262.9191°
Mean anomaly
97.1582°
Rev number
8,923

§ Raw data

STARLINK-324211 61628U 24191H   26145.18227532  .00000462  00000+0  26286-4 0  99972 61628  43.0001  82.6259 0000690 262.9191  97.1582 15.27580537 89237

JSON: /api/v1/satellites/61628 · /tle

For live sub-satellite position, see the globe view (requires WebGL).

§ Visibility from observer

Set your observer location to see the next 7 days of passes ≥ 10°. The values pass through the URL so the page stays shareable.

No JS? Fill the form by hand. The geolocation button needs JavaScript.